Location: Saint-Hippolyte
(43.6394°N, 4.7559°E)
Time: 15:40:18
(UTC+00:00)

IRS-1C Rocket - Pass Details

Date: 24 October 2020
Orbit: 801 x 805 km, 99.0° (Epoch: 24 November)

Event Time Altitude Azimuth Distance (km) Brightness Sun altitude
Rises 17:17:04 0° 147° (SSE) 3,301 7.1 -6.9°
Reaches altitude 10° 17:19:27 10° 142° (SE) 2,375 6.3 -7.3°
Maximum altitude 17:24:29 48° 69° (ENE) 1,040 4.3 -8.2°
Drops below altitude 10° 17:29:32 10° 357° (N) 2,394 6.5 -9.1°
Sets 17:31:57 0° 352° (N) 3,329 7.3 -9.5°
